Home   Weather   Lexington-Fayette   Past weeks

Flag for USA Past Weather in Lexington-Fayette, Kentucky, USA — Yesterday and Last 2 Weeks

Now
68 °F

Clear.


Feels Like: 68 °F
Forecast: 54 / 78 °F
Wind: 6 mph from South

Location: Blue Grass Airport

Current Time: Sep 26, 2016 at 6:39:43 AM

Latest Report: Sep 26, 2016 at 5:54 AM


Visibility: 10 mi

Pressure: 29.95 "Hg

Humidity: 84%

Dew Point: 63 °F

Location of Lexington-FayetteLocation

Past Weather in Lexington-Fayette — Graph

°F

Lexington-Fayette Temperature Yesterday

Maximum temperature yesterday: 88 °F (at 3:54 PM)
Minimum temperature yesterday: 67 °F (at 5:54 AM)
Average temperature yesterday: 77 °F

High & Low Weather Summary for the Past Weeks

 TemperatureHumidityPressure
High91 °F (Sep 16, 3:54 PM)97% (Sep 19, 8:54 AM)30.22 "Hg (Sep 19, 8:54 AM)
Low57 °F (Sep 12, 6:54 AM)24% (Sep 12, 5:54 PM)29.93 "Hg (Sep 18, 4:54 PM)
Average75 °F65%30.08 "Hg
* Reported Sep 11 4:54 AM — Sep 26 4:54 AM, Lexington-Fayette, Weather by CustomWeather, © 2016

Note: Actual official high and low records may vary slightly from our data, if they occured in-between our weather recording intervals... More about our weather records

Advertising

Lexington-Fayette Weather History for the Previous 24 Hours

Scroll right to see more
 ConditionsComfort  
Time TempWeatherWind HumidityBarometerVisibility
4:54 AM
Mon, Sep 26
68 °FClear.5 mph84%29.95 "Hg10 mi
3:54 AM69 °FClear.6 mph84%29.96 "Hg10 mi
2:54 AM69 °FClear.7 mph84%29.99 "Hg10 mi
1:54 AM72 °FClear.3 mph78%30.00 "Hg10 mi
12:54 AM73 °FClear.5 mph76%30.01 "Hg10 mi
11:54 PM
Sun, Sep 25
74 °FClear.3 mph74%30.01 "Hg10 mi
10:54 PM74 °FClear.No wind74%30.02 "Hg10 mi
9:54 PM72 °FClear.No wind78%30.02 "Hg10 mi
8:54 PM76 °FClear.No wind69%30.02 "Hg10 mi
7:54 PM82 °FPassing clouds.5 mph53%30.01 "Hg10 mi
6:54 PM84 °FPartly sunny.3 mph49%30.01 "Hg10 mi
5:54 PM86 °FMore clouds than sun.No wind45%30.01 "Hg7 mi
4:54 PM86 °FScattered clouds.No wind43%30.02 "Hg10 mi
3:54 PM88 °FBroken clouds.No wind42%30.03 "Hg10 mi
2:54 PM85 °FOvercast.6 mph48%30.05 "Hg10 mi
1:54 PM85 °FSunny.5 mph48%30.07 "Hg10 mi
12:54 PM87 °FSunny.6 mph46%30.09 "Hg10 mi
11:54 AM84 °FSunny.No wind51%30.10 "Hg10 mi
10:54 AM80 °FSunny.6 mph58%30.11 "Hg10 mi
9:54 AM76 °FSunny.6 mph67%30.11 "Hg10 mi
8:54 AM72 °FSunny.7 mph73%30.11 "Hg10 mi
7:54 AM68 °FSunny.5 mph84%30.10 "Hg10 mi
6:54 AM68 °FClear.6 mph84%30.09 "Hg10 mi
Weather by CustomWeather, © 2016

See weather overviewHow to use our weather pages